Ocala, FL

3:54 PM EDT on June 25, 2018 (GMT -0400)
Ocala Regional-Taylor

Weather History for KOCF - August, 2017

Change the Weather History Date:

Sunday, August 13, 2017

  Actual Average Record
Temperature  
Mean Temperature 82 °F -  
Max Temperature 89 °F 88 °F 96 °F (1999)
Min Temperature 75 °F 70 °F 69 °F (2015)
Cooling Degree Days 17    
Growing Degree Days 32 (Base 50)    
Moisture  
Dew Point 76 °F    
Average Humidity 84    
Maximum Humidity 97    
Minimum Humidity 67    
Precipitation  
Precipitation 0.00 in - - ()
Sea Level Pressure  
Sea Level Pressure 29.99 in    
Wind  
Wind Speed 4 mph (SSW)    
Max Wind Speed 12 mph    
Max Gust Speed -    
Visibility 10 miles    
Events Rain , Thunderstorm    
Averages and records for this station are not official NWS values.
T = Trace of Precipitation, MM = Missing Value Source: NWS Daily Summary

Daily Weather History Graph

Daily Weather History Graph

Search for Another Location

Airport or City:

Astronomy

Aug. 13, 2017 Rise Set
Actual Time 6:56 AM EDT 8:10 PM EDT
Civil Twilight 6:31 AM EDT 8:35 PM EDT
Nautical Twilight 6:01 AM EDT 9:05 PM EDT
Astronomical Twilight 5:30 AM EDT 9:35 PM EDT
Moon No Moon Rise 12:27 PM EDT (8/13)
Length of Visible Light 14h 03m
Length of Day
13h 14m
Waning Gibbous, 65% of the Moon is Illuminated
Aug 13
Waning Gibbous
Aug 14
Last Quarter
Aug 21
New
Aug 29
First Quarter
Sep 6
Full

Hourly Weather History & Observations

Time (EDT) Temp. Heat Index Dew Point Humidity Pressure Visibility Wind Dir Wind Speed Gust Speed Precip Events Conditions
12:51 AM 77.0 °F - 75.0 °F 94% 30.01 in 10.0 mi WSW 4.6 mph - 0.00 in Rain Rain
2:51 AM 75.9 °F - 73.9 °F 94% 29.98 in 10.0 mi Calm Calm - 0.00 in Rain Rain
3:51 AM 75.9 °F - 73.9 °F 94% 29.97 in 10.0 mi South 4.6 mph - 0.00 in Rain Rain
4:51 AM 75.0 °F - 73.9 °F 96% 29.97 in 10.0 mi South 4.6 mph - 0.00 in Rain Rain
5:51 AM 75.0 °F - 73.9 °F 96% 29.97 in 10.0 mi South 3.5 mph - 0.00 in Rain Rain
6:51 AM 75.0 °F - 73.9 °F 96% 29.99 in 10.0 mi Calm Calm - 0.00 in Rain Rain
7:51 AM 75.9 °F - 75.0 °F 97% 30.01 in 7.0 mi South 4.6 mph - N/A   Clear
8:51 AM 80.1 °F 85.8 °F 77.0 °F 90% 30.01 in 10.0 mi South 4.6 mph - N/A   Clear
9:51 AM 84.0 °F 94.8 °F 78.1 °F 82% 30.02 in 10.0 mi South 4.6 mph - N/A   Partly Cloudy
10:49 AM 87.8 °F 99.7 °F 77.0 °F 70% 30.01 in 10.0 mi SW 5.8 mph - N/A   Mostly Cloudy
10:51 AM 87.1 °F 98.8 °F 77.0 °F 72% 30.02 in 10.0 mi WSW 4.6 mph - N/A   Mostly Cloudy
11:51 AM 84.0 °F 93.7 °F 77.0 °F 79% 30.02 in 10.0 mi WSW 10.4 mph - N/A   Mostly Cloudy
12:51 PM 84.9 °F 94.1 °F 75.9 °F 74% 30.01 in 10.0 mi SSW 6.9 mph - N/A Thunderstorm Scattered Clouds
12:59 PM 84.2 °F 94.1 °F 77.0 °F 79% 30.01 in 10.0 mi South 6.9 mph - N/A   Clear
1:51 PM 82.0 °F 89.4 °F 75.9 °F 82% 30.01 in 10.0 mi Variable 5.8 mph - N/A   Scattered Clouds
2:51 PM 89.1 °F 103.2 °F 78.1 °F 70% 29.98 in 10.0 mi South 11.5 mph - N/A   Partly Cloudy
3:51 PM 88.0 °F 98.5 °F 75.9 °F 67% 29.97 in 10.0 mi SSW 9.2 mph - N/A   Mostly Cloudy
4:51 PM 88.0 °F 100.2 °F 77.0 °F 70% 29.96 in 10.0 mi SW 9.2 mph - N/A   Mostly Cloudy
5:51 PM 86.0 °F 95.1 °F 75.0 °F 70% 29.98 in 10.0 mi West 4.6 mph - N/A   Clear
6:51 PM 84.9 °F 95.3 °F 77.0 °F 77% 29.96 in 10.0 mi West 6.9 mph - N/A   Clear
7:51 PM 82.9 °F 90.8 °F 75.9 °F 79% 29.97 in 10.0 mi SW 3.5 mph - N/A   Clear
8:51 PM 81.0 °F 87.3 °F 75.9 °F 85% 29.97 in 10.0 mi South 3.5 mph - N/A   Clear
9:51 PM 80.1 °F 85.8 °F 77.0 °F 90% 30.01 in 10.0 mi Calm Calm - N/A   Partly Cloudy
10:51 PM 79.0 °F - 77.0 °F 94% 30.03 in 10.0 mi Calm Calm - N/A   Partly Cloudy
11:51 PM 79.0 °F - 77.0 °F 94% 30.02 in 10.0 mi Calm Calm - N/A   Partly Cloudy